GSAT0213 (GALILEO 17) (41861 NORAD) Tracking and Keplerian Element Data

This shows tracking and keplerian element data for the satellite.

Feedback or suggestion? Click here.




ElementValue
Catalog41861
NameGSAT0213 (GALILEO 17)
Epoch Orbit1296
Epoch Day351.20558551
Epoch Year2018
RAAN177.0844
Inclination54.5896
Eccentricity0.0001257
Argument of Perigee263.6015
Mean Anonmoly96.4317
Mean Motion1.70473564
Decay Rate1.06E-06
L11 41861U 16069C 18351.20558551 .00000106 00000-0 00000-0 0 9998
L22 41861 54.5896 177.0844 0001257 263.6015 96.4317 1.70473564 12963

Live tracking and technical data element details for GSAT0213 (GALILEO 17) (NORAD 41861). GSAT0213 (GALILEO 17) can be tracked NOW for your location showing map with azimuth and elevation plus other details from your city location.

Track the satellite on the map from your city or location and see movement details for azimuth, elevation, latitude, longitude, range, height, and movement on the map or in text.







IsCatalogInMostPopularTable: catalog: 41861, numindb: 116
Update: records affected: 1



GetName: 41861 GSAT0213 (GALILEO 17)

Hit Count: updated at: Wed, 19 Dec 2018 15:47:28 GMT